TimeEST,TemperatureF,Dew PointF,Humidity,Sea Level PressureIn,VisibilityMPH,Wind Direction,Wind SpeedMPH,Gust SpeedMPH,PrecipitationIn,Events,Conditions,WindDirDegrees,DateUTC
12:53 AM,50.0,50.0,100,29.94,2.5,WNW,4.6,-,0.07,Rain,Rain,300,2011-12-07 05:53:00
1:00 AM,50.0,50.0,100,29.93,2.5,WNW,3.5,-,0.00,Rain,Rain,300,2011-12-07 06:00:00
1:23 AM,50.0,48.2,94,29.93,2.5,WNW,4.6,-,0.01,Rain,Rain,300,2011-12-07 06:23:00
1:53 AM,50.0,48.9,96,29.91,2.0,NW,4.6,-,0.05,Rain,Rain,310,2011-12-07 06:53:00
1:55 AM,50.0,48.2,94,29.92,5.0,NW,5.8,-,0.00,Rain,Rain,310,2011-12-07 06:55:00
2:21 AM,48.2,48.2,100,29.91,8.0,NW,3.5,-,0.03,Rain,Rain,310,2011-12-07 07:21:00
2:36 AM,50.0,48.2,94,29.91,9.0,Calm,Calm,-,0.03,Rain,Rain,0,2011-12-07 07:36:00
2:39 AM,50.0,48.2,94,29.92,2.5,Calm,Calm,-,0.03,Rain,Light Rain,0,2011-12-07 07:39:00
2:53 AM,48.9,48.0,97,29.94,2.5,West,9.2,-,0.05,Rain,Light Rain,280,2011-12-07 07:53:00
3:08 AM,48.2,48.2,100,29.92,2.5,WNW,6.9,-,0.04,Rain,Light Rain,290,2011-12-07 08:08:00
3:17 AM,48.2,48.2,100,29.91,3.0,WNW,4.6,-,0.05,Rain,Light Rain,300,2011-12-07 08:17:00
3:53 AM,48.0,46.9,96,29.91,3.0,West,5.8,-,0.07,Rain,Light Rain,280,2011-12-07 08:53:00
3:56 AM,48.2,46.4,93,29.90,2.0,WNW,4.6,-,0.01,Rain,Light Rain,300,2011-12-07 08:56:00
4:17 AM,48.2,46.4,93,29.90,3.0,NNE,5.8,-,0.04,Rain,Light Rain,20,2011-12-07 09:17:00
4:53 AM,46.9,46.0,97,29.88,3.0,NNE,8.1,-,0.09,Rain,Light Rain,20,2011-12-07 09:53:00
5:37 AM,46.4,44.6,93,29.90,2.5,North,10.4,-,0.07,Rain,Heavy Rain,350,2011-12-07 10:37:00
5:53 AM,46.0,44.1,93,29.88,3.0,North,5.8,-,0.11,Rain,Light Rain,10,2011-12-07 10:53:00
6:00 AM,46.4,44.6,93,29.89,3.0,North,5.8,-,0.01,Rain,Rain,360,2011-12-07 11:00:00
6:04 AM,44.6,44.6,100,29.89,3.0,NNE,8.1,-,0.01,Rain,Light Rain,20,2011-12-07 11:04:00
6:53 AM,44.1,42.1,93,29.87,3.0,North,9.2,-,0.06,Rain,Rain,360,2011-12-07 11:53:00
7:38 AM,44.6,42.8,93,29.87,5.0,North,4.6,-,0.04,Rain,Rain,360,2011-12-07 12:38:00
7:46 AM,44.6,42.8,93,29.88,9.0,North,3.5,-,0.04,Rain,Light Rain,360,2011-12-07 12:46:00
7:53 AM,44.1,43.0,96,29.89,7.0,Calm,Calm,-,0.04,Rain,Light Rain,0,2011-12-07 12:53:00
8:14 AM,44.6,42.8,93,29.87,4.0,North,4.6,-,0.03,Rain,Light Rain,350,2011-12-07 13:14:00
8:36 AM,44.6,42.8,93,29.86,4.0,North,6.9,-,0.04,Rain,Light Rain,10,2011-12-07 13:36:00
8:53 AM,44.1,42.1,93,29.86,2.5,North,6.9,-,0.05,Rain,Rain,10,2011-12-07 13:53:00
9:06 AM,44.6,42.8,93,29.85,2.5,NNW,3.5,-,0.03,Rain,Rain,340,2011-12-07 14:06:00
9:46 AM,44.6,42.8,93,29.84,5.0,NNW,9.2,-,0.09,Rain,Light Rain,340,2011-12-07 14:46:00
9:53 AM,43.0,42.1,97,29.83,5.0,North,10.4,-,0.09,Rain,Light Rain,350,2011-12-07 14:53:00
10:16 AM,42.8,41.0,93,29.83,10.0,North,10.4,-,0.00,,Overcast,360,2011-12-07 15:16:00
10:46 AM,42.8,39.2,87,29.85,10.0,NW,9.2,-,0.00,,Overcast,320,2011-12-07 15:46:00
10:53 AM,43.0,39.9,89,29.86,10.0,NNW,10.4,-,0.00,,Overcast,340,2011-12-07 15:53:00
11:10 AM,42.8,39.2,87,29.85,2.5,NNW,10.4,-,0.00,Rain,Light Rain,330,2011-12-07 16:10:00
11:15 AM,42.8,39.2,87,29.85,1.5,NNW,11.5,-,0.00,Rain,Light Rain,330,2011-12-07 16:15:00
11:20 AM,42.8,39.2,87,29.85,1.2,NNW,9.2,-,0.00,Rain,Light Rain,330,2011-12-07 16:20:00
11:33 AM,42.8,39.2,87,29.85,1.2,NNW,6.9,-,0.01,Rain,Light Rain,330,2011-12-07 16:33:00
11:46 AM,42.8,39.2,87,29.84,1.2,NNE,4.6,-,0.02,Rain,Light Rain,20,2011-12-07 16:46:00
11:53 AM,42.1,39.9,92,29.84,2.0,NNE,4.6,-,0.03,Rain,Light Rain,20,2011-12-07 16:53:00
12:10 PM,42.8,39.2,87,29.83,4.0,Calm,Calm,-,0.00,Rain,Light Rain,0,2011-12-07 17:10:00
12:49 PM,42.8,39.2,87,29.79,10.0,North,8.1,-,0.00,Rain,Light Rain,350,2011-12-07 17:49:00
12:53 PM,42.1,39.9,92,29.79,10.0,NNW,6.9,-,0.00,Rain,Light Rain,340,2011-12-07 17:53:00
1:15 PM,42.8,39.2,87,29.80,2.0,NNW,8.1,-,0.00,Rain,Light Rain,330,2011-12-07 18:15:00
1:18 PM,42.8,39.2,87,29.80,1.5,NNW,9.2,-,0.00,Rain,Light Rain,340,2011-12-07 18:18:00
1:46 PM,41.0,39.2,93,29.83,1.5,WNW,8.1,-,0.03,Rain,Light Rain,300,2011-12-07 18:46:00
1:53 PM,39.9,37.9,93,29.83,1.5,NNW,12.7,17.3,0.03,Rain,Light Rain,330,2011-12-07 18:53:00
2:11 PM,39.2,35.6,87,29.83,1.5,NNW,15.0,21.9,0.02,Rain,Light Rain,330,2011-12-07 19:11:00
2:26 PM,39.2,35.6,87,29.84,2.5,North,13.8,23.0,0.04,Rain,Rain,350,2011-12-07 19:26:00
2:34 PM,39.2,35.6,87,29.84,4.0,North,12.7,23.0,0.05,Rain,Light Rain,350,2011-12-07 19:34:00
2:53 PM,39.0,36.0,89,29.87,6.0,NNW,10.4,-,0.05,Rain,Light Rain,330,2011-12-07 19:53:00
3:06 PM,39.2,35.6,87,29.88,4.0,NW,9.2,-,0.01,Rain,Rain,320,2011-12-07 20:06:00
3:14 PM,37.4,35.6,93,29.89,3.0,NW,15.0,-,0.02,Rain,Rain,310,2011-12-07 20:14:00
3:26 PM,37.4,35.6,93,29.90,3.0,NW,9.2,18.4,0.05,Rain,Rain,320,2011-12-07 20:26:00
3:53 PM,37.9,36.0,93,29.94,5.0,NW,8.1,-,0.07,Rain,Light Rain,310,2011-12-07 20:53:00
4:00 PM,37.4,35.6,93,29.93,3.0,NW,10.4,-,0.00,Rain,Light Rain,310,2011-12-07 21:00:00
4:11 PM,37.4,35.6,93,29.94,3.0,NW,8.1,19.6,0.01,Rain,Light Rain,320,2011-12-07 21:11:00
4:20 PM,37.4,35.6,93,29.96,3.0,NW,12.7,18.4,0.01,Rain,Light Rain,310,2011-12-07 21:20:00
4:38 PM,37.4,33.8,87,29.98,2.0,WNW,9.2,-,0.03,Rain-Snow,Light Rain,290,2011-12-07 21:38:00
4:43 PM,35.6,33.8,93,29.99,1.5,WNW,9.2,-,0.05,Rain-Snow,Rain,300,2011-12-07 21:43:00
4:47 PM,35.6,33.8,93,29.99,1.2,WSW,8.1,-,0.06,Rain-Snow,Rain,250,2011-12-07 21:47:00
4:49 PM,35.6,33.8,93,29.99,3.0,West,6.9,-,0.07,Rain-Snow,Light Rain,260,2011-12-07 21:49:00
4:53 PM,34.0,33.1,96,29.99,5.0,West,4.6,-,0.07,Rain-Snow,Light Rain,260,2011-12-07 21:53:00
5:06 PM,35.6,33.8,93,30.00,10.0,Calm,Calm,-,0.00,Rain-Snow,Light Rain,0,2011-12-07 22:06:00
5:34 PM,35.6,33.8,93,30.01,10.0,WSW,5.8,-,0.00,,Overcast,240,2011-12-07 22:34:00
5:53 PM,36.0,34.0,93,30.05,10.0,WSW,5.8,-,0.00,,Overcast,240,2011-12-07 22:53:00
6:53 PM,37.0,35.1,93,30.09,10.0,SW,9.2,-,N/A,,Overcast,230,2011-12-07 23:53:00
7:34 PM,37.4,30.2,75,30.10,10.0,NNW,6.9,-,0.00,Rain-Snow,Light Rain,330,2011-12-08 00:34:00
7:53 PM,37.4,30.2,75,30.12,10.0,North,6.9,-,N/A,,Mostly Cloudy,350,2011-12-08 00:53:00
8:32 PM,37.4,30.2,75,30.13,10.0,Calm,Calm,-,N/A,,Overcast,0,2011-12-08 01:32:00
8:53 PM,37.0,30.0,76,30.16,10.0,North,5.8,-,N/A,,Overcast,350,2011-12-08 01:53:00
9:20 PM,35.6,28.4,75,30.16,10.0,North,9.2,-,N/A,,Overcast,360,2011-12-08 02:20:00
9:53 PM,36.0,27.0,70,30.18,10.0,North,8.1,-,N/A,,Overcast,360,2011-12-08 02:53:00
10:53 PM,36.0,26.1,67,30.21,10.0,North,5.8,-,N/A,,Overcast,360,2011-12-08 03:53:00
11:53 PM,35.1,26.1,70,30.23,10.0,NE,5.8,-,N/A,,Overcast,40,2011-12-08 04:53:00